{"data":{"norad_id":65602,"epoch":"2026-05-25T03:07:47.785152Z","epoch_age_seconds":64089,"freshness":"FRESH","line1":"1 65602U 25207L   26145.13041418 -.00014636  00000+0 -10132-2 0  9995","line2":"2 65602  97.4538 213.6471 0001303 193.7050 166.4142 15.05618735 39763","mean_motion":15.05618735,"eccentricity":0.0001303,"inclination_deg":97.4538,"raan_deg":213.6471,"arg_perigee_deg":193.705,"mean_anomaly_deg":166.4142,"bstar":-0.0010132,"rev_number":3976,"period_min":95.641742927701,"perigee_km":548.70437293575,"apogee_km":550.50974303726,"semimajor_km":6927.7440579865,"source":"CELESTRAK","updated_at":"2026-05-25T13:38:20.854063Z"}}